Home > Weather > Kansas City > Past weeks

Flag for USA Past Weather in Kansas City, Missouri, USA — Yesterday and Last 2 Weeks

Now
73 °F

Overcast.


Feels Like: 73 °F
Forecast: 69 / 82 °F
Wind: 6 mph from Northeast

Location: Kansas City Downtown Airport

Current Time: Aug 26, 2016 at 2:03:22 AM

Latest Report: Aug 26, 2016 at 12:54 AM


Visibility: 10 mi

Pressure: 30.07 "Hg

Humidity: 81%

Dew Point: 67 °F

Location of Kansas CityLocation

Past Weather in Kansas City — Graph

°F

Kansas City Temperature Yesterday

Maximum temperature yesterday: 85 °F (at 3:54 PM)
Minimum temperature yesterday: 71 °F (at 4:54 AM)
Average temperature yesterday: 77 °F

High & Low Weather Summary for the Past Weeks

 TemperatureHumidityPressure
High100 °F (Aug 11, 1:54 PM)94% (Aug 12, 5:57 AM)30.13 "Hg (Aug 12, 5:57 AM)
Low58 °F (Aug 21, 5:54 AM)28% (Aug 14, 3:54 PM)29.71 "Hg (Aug 19, 5:54 PM)
Average79 °F67%29.96 "Hg
* Reported Aug 11 12:54 AM — Aug 26 12:54 AM, Kansas City, Weather by CustomWeather, © 2016

Note: Actual official high and low records may vary slightly from our data, if they occured in-between our weather recording intervals... More about our weather records

Advertising

Kansas City Weather History for the Previous 24 Hours

Scroll right to see more
 ConditionsComfort  
Time TempWeatherWind HumidityBarometerVisibility
12:54 AM
Fri, Aug 26
73 °FOvercast.6 mph81%30.07 "Hg10 mi
11:54 PM
Thu, Aug 25
73 °FPassing clouds.6 mph81%30.06 "Hg10 mi
10:54 PM74 °FMostly cloudy.8 mph82%30.07 "Hg10 mi
9:54 PM75 °FOvercast.8 mph82%30.06 "Hg10 mi
8:54 PM75 °FLight rain. Cloudy.10 mph85%30.04 "Hg10 mi
7:54 PM78 °FMostly cloudy.10 mph76%30.02 "Hg10 mi
6:54 PM79 °FMostly cloudy.12 mph72%29.99 "Hg10 mi
5:54 PM83 °FPartly sunny.9 mph65%29.99 "Hg10 mi
4:54 PM84 °FOvercast.5 mph59%29.99 "Hg10 mi
3:54 PM85 °FPartly sunny.5 mph57%30.00 "Hg10 mi
2:54 PM84 °FMore clouds than sun.3 mph61%30.01 "Hg10 mi
1:54 PM83 °FBroken clouds.No wind61%30.03 "Hg10 mi
12:54 PM84 °FPartly sunny.5 mph61%30.03 "Hg10 mi
12:02 PM82 °FPartly sunny.3 mph67%30.06 "Hg10 mi
11:54 AM81 °FBroken clouds.5 mph69%30.04 "Hg10 mi
10:54 AM78 °FScattered clouds.No wind79%30.05 "Hg10 mi
9:54 AM76 °FMore clouds than sun.5 mph88%30.05 "Hg10 mi
9:01 AM74 °FBroken clouds.5 mph91%30.06 "Hg10 mi
8:54 AM73 °FBroken clouds.3 mph94%30.04 "Hg10 mi
7:54 AM73 °FThundershowers. Low clouds.3 mph90%30.03 "Hg10 mi
6:54 AM71 °FClear.5 mph93%29.98 "Hg10 mi
5:54 AM71 °FPassing clouds.No wind93%29.99 "Hg10 mi
4:54 AM71 °FPassing clouds.No wind93%30.00 "Hg10 mi
3:54 AM72 °FStrong thunderstorms. Fog.12 mph93%30.03 "Hg4 mi
2:54 AM72 °FLight rain. Mostly cloudy.5 mph93%30.00 "Hg10 mi
Weather by CustomWeather, © 2016

See weather overviewHow to use our weather pages